Location: Charlottetown
(46.2330°N, 63.1330°W)
Time: 19:34:14
(UTC-03:00)

Daily predictions for brighter satellites

Satellite Brightness Start Highest point End
(mag) Time Altitude Azimuth Time Altitude Azimuth Time Altitude Azimuth
Cosmos 1605 Rocket 4.2 19:56:15 10° SSE 20:02:16 51° E 20:08:24 10° NNE
FENGYUN 3A 3.7 19:58:10 10° SSE 20:03:33 76° ENE 20:08:58 10° N
Lacrosse 5 1.9 20:01:30 10° SW 20:06:34 79° SE 20:11:40 10° NE
Meteor 1-22 Rocket 4.4 20:02:24 10° S 20:08:16 82° E 20:14:23 10° NNE
BREEZE-M DEB (TANK) 3.7 20:06:10 10° SSW 20:08:52 36° SE 20:15:07 10° ENE
FREGAT/IRIS 3.5 20:06:57 10° S 20:09:57 54° W 20:12:59 10° NNW
Cosmos 1544 3.5 20:07:50 10° SSE 20:11:15 39° E 20:14:44 10° NNE
Cosmos 2278 Rocket 2.2 20:06:11 10° SSW 20:11:51 74° ESE 20:17:32 10° NNE
Spot 2 Rocket 3.6 20:07:21 10° SSE 20:12:23 61° ENE 20:17:26 10° N
Cosmos 2123 Rocket 4.1 20:07:23 10° N 20:13:46 86° E 20:20:03 10° S
Cosmos 1867 4.1 20:09:09 10° S 20:14:03 35° ESE 20:19:00 10° NE
Cosmos 1437 Rocket 3.9 20:10:14 10° SSW 20:14:10 52° WNW 20:18:12 10° N
ATLAS 5 CENTAUR R/B 2.9 20:15:12 10° SSE 20:18:55 23° ESE 20:22:51 10° ENE
Cosmos 990 Rocket 4.4 20:14:09 10° SSW 20:19:22 70° WNW 20:24:38 10° NNE
Cosmos 1470 4.0 20:17:47 10° SE 20:20:49 21° E 20:23:52 10° NE
Timation 1 Rocket 4.5 20:16:00 10° S 20:21:48 53° ESE 20:27:38 10° NE
USA 267 4.3 20:17:25 10° ENE 20:23:15 36° N 20:29:06 10° NW
Cosmos 1733 4.5 20:21:52 10° SE 20:24:52 22° E 20:27:54 10° NE
SJ-6B 4.1 20:24:22 10° S 20:27:54 41° W 20:31:29 10° NNW
Cosmos 1340 Rocket 3.8 20:25:02 10° N 20:28:35 29° ENE 20:31:35 13° SE
Cosmos 2297 3.9 20:23:27 10° S 20:28:55 48° ESE 20:34:25 10° NE
Envisat 3.7 20:26:00 10° SE 20:30:36 36° ENE 20:35:13 10° N
H-2A R/B 3.1 20:33:07 10° S 20:37:00 70° WSW 20:40:58 10° NNW
Cosmos 2082 Rocket 2.2 20:33:50 10° NNW 20:39:34 84° ENE 20:45:14 10° SSE
Cosmos 1125 Rocket 3.4 20:34:44 10° S 20:39:52 65° ESE 20:45:03 10° NNE
Resurs 1-3 3.7 20:35:44 10° SSE 20:40:06 81° WSW 20:44:32 10° NNW
Cosmos 1048 Rocket 3.9 20:35:16 10° NNW 20:40:26 85° ENE 20:45:33 10° SSE
Cosmos 1184 Rocket 4.3 20:38:18 10° NNE 20:40:58 21° ENE 20:41:44 19° E
Geosat 4.3 20:36:27 10° NE 20:41:16 44° ESE 20:46:04 10° S
Cosmos 1408 Rocket 3.6 20:37:59 10° N 20:42:26 63° E 20:46:52 10° SSE
Cosmos 2061 Rocket 4.5 20:37:04 10° SSE 20:42:56 40° E 20:48:51 10° NNE
Timation 2 Rocket 3.9 20:38:25 10° NNW 20:44:49 78° ENE 20:50:48 11° SSE
Cosmos 482 Debris 2.5 20:43:41 10° NW 20:45:31 58° NNE 20:45:46 49° ENE
ERS-1 Rocket 4.0 20:43:19 17° ESE 20:46:06 28° ENE 20:50:21 10° N
SeaSat 1 3.5 20:42:16 10° S 20:46:58 45° WSW 20:51:43 10° NW
Cosmos 1447 Rocket 4.5 20:45:13 10° N 20:51:23 87° W 20:57:32 10° S
ALOS 4.0 20:49:13 10° SSW 20:53:29 35° W 20:57:48 10° NNW
Cosmos 1459 Rocket 4.1 20:48:06 10° SSE 20:54:06 51° E 21:00:02 10° NNE
SL-14 R/B 4.3 20:50:54 10° NNE 20:54:11 26° ENE 20:54:55 24° E
Cosmos 1758 3.5 20:50:57 10° SSW 20:54:55 72° W 20:58:56 10° N
Cosmos 2151 4.2 20:51:49 10° NNE 20:55:15 23° ENE 20:55:59 22° E
Cosmos 1842 Rocket 4.4 20:57:31 25° ESE 20:58:44 28° E 21:02:30 10° NNE
Helios 1B rocket 2.3 20:56:41 10° NNE 21:00:49 65° ESE 21:04:53 10° S
Cosmos 2173 Rocket 4.0 20:55:01 10° SSE 21:01:01 57° E 21:07:09 10° NNE
Cosmos 1953 2.7 20:58:05 10° SSW 21:02:07 66° W 21:06:10 10° N
Cosmos 1271 Rocket 2.8 20:59:13 10° S 21:03:10 62° E 21:07:10 10° NNE
CZ-3B DEB 3.0 20:53:37 10° WSW 21:03:18 60° NNW 21:07:44 10° NE
Cosmos 1076 Rocket 4.4 21:03:09 10° NNW 21:07:16 49° W 21:11:21 10° SSW
SAR-Lupe-4 4.2 21:07:07 10° S 21:10:37 55° WSW 21:14:10 10° NNW
Cosmos 1939 Rocket 2.9 21:08:20 25° SSE 21:10:38 66° ENE 21:14:46 10° N
OE (NEXTSAT) 4.3 21:07:01 10° W 21:10:38 83° S 21:11:46 42° E
Meteor 1-29 2.8 21:08:12 10° NNE 21:11:41 71° ESE 21:15:09 10° S
Lacrosse 4 Rocket 4.4 21:10:20 10° WNW 21:12:29 14° NW 21:14:38 10° N
Cosmos 1674 3.2 21:08:52 10° NNW 21:12:36 58° W 21:16:20 10° S
YAOGAN 6 3.2 21:13:09 37° E 21:13:30 37° ENE 21:16:58 10° N
SWAS 4.3 21:10:31 10° SSW 21:14:48 82° ESE 21:19:09 10° NNE
Cosmos 2251 Rocket 3.6 21:13:19 10° NNW 21:18:35 59° ENE 21:20:53 33° SE
COSMOS 2487 4.1 21:16:38 10° NW 21:19:52 32° WSW 21:22:57 11° SSW
Helios 1A 3.8 21:16:58 10° S 21:21:02 50° W 21:25:08 10° NNW
Lacrosse 5 rocket 1.4 21:17:32 10° NW 21:21:26 61° SW 21:22:31 41° SSE
CZ-4B DEB 3.3 21:20:23 27° SSW 21:21:49 55° W 21:24:53 10° NNW
ISS -2.5 21:27:29 10° SW 21:29:21 30° SSW 21:29:21 30° SSW
GP-B 4.0 21:26:57 10° SSW 21:31:14 48° W 21:35:34 10° NNW
USA 215 3.4 21:25:11 10° ENE 21:31:27 47° SE 21:37:40 10° SSW
Cosmos 2016 Rocket 3.9 21:26:47 10° S 21:32:57 72° E 21:39:05 10° NNE
Cosmos 372 Rocket 4.5 21:27:54 10° SW 21:32:57 60° WNW 21:38:05 10° NNE
Cosmos 2369 Rocket 4.0 21:36:57 15° ENE 21:36:57 15° ENE 21:38:09 10° NE
USA 186 4.1 21:33:16 10° SW 21:34:20 13° W 21:35:30 10° WNW
Cosmos-2242 3.8 21:33:02 10° SSW 21:37:10 52° WNW 21:41:21 10° N
Resurs 01 Rocket 4.3 21:35:43 10° SW 21:38:49 18° W 21:41:55 10° NW
Cosmos 1626 3.9 21:38:02 10° NNE 21:39:52 22° NE 21:39:52 22° NE
Cosmos 1725 Rocket 4.0 21:38:50 30° SSE 21:41:51 59° E 21:47:55 10° NNE
MetOp-B 4.2 21:42:31 48° ESE 21:43:39 58° ENE 21:48:55 10° N
Cosmos 1833 Rocket 4.1 21:40:19 10° NW 21:45:20 34° WSW 21:50:10 11° SSW
Cosmos 389 Rocket 4.4 21:51:53 21° NNE 21:51:53 21° NNE 21:53:13 10° NNE
Lacrosse 5 3.4 21:45:22 10° W 21:49:59 34° NNW 21:54:33 10° NE
Cosmos 1356 Rocket 3.5 21:46:26 10° NNW 21:50:33 71° W 21:51:04 62° SSW
NOAA 11 4.1 21:52:28 54° SE 21:53:33 69° ENE 21:59:02 10° N
Cosmos 2221 4.1 21:56:48 24° NE 21:56:48 24° NE 21:58:48 10° NNE
SL-08 R/B 4.4 21:49:11 14° S 21:54:51 87° E 22:01:19 10° N
SPOT 5 3.1 21:54:20 57° ESE 21:54:58 62° ENE 22:00:13 10° N
Cosmos 494 Rocket 4.1 21:51:36 10° NNW 21:56:41 67° WSW 21:58:07 45° S
Tsikada Rocket 3.9 21:52:30 10° N 21:58:46 84° E 22:00:51 45° SSE
Cosmos 1500 Rocket 4.1 21:56:50 10° NNW 22:01:04 54° W 22:01:59 44° SW
H-2A R/B 3.8 22:03:14 20° NNE 22:03:14 20° NNE 22:05:02 10° N
BREEZE-M DEB (TANK) 3.9 21:57:53 10° SW 22:02:16 68° SSE 22:19:48 10° ENE
ATLAS 5 CENTAUR R/B 2.5 21:58:25 10° SW 22:03:08 56° NW 22:08:19 10° NNE
Cosmos 1805 Rocket 4.5 22:00:25 10° N 22:03:31 38° NNE 22:03:31 38° NNE
USA 267 3.5 22:03:31 42° E 22:05:35 60° NNE 22:12:01 10° NW
Cosmos 2346 Rocket 4.4 22:00:20 10° N 22:06:30 61° ENE 22:07:07 58° ESE
Terra 3.4 22:09:03 23° NE 22:09:03 23° NE 22:11:39 10° N
MOS 1-B Rocket 4.5 22:14:17 52° ESE 22:15:59 65° ENE 22:22:45 10° N
SL-08 RB Rocket 4.2 22:20:51 54° N 22:20:51 54° N 22:24:34 10° N
H-2A R/B 2.4 22:21:37 53° NE 22:21:37 53° NE 22:26:09 10° N
Cosmos 2058 3.8 22:18:01 10° NNW 22:21:29 48° WNW 22:21:29 48° WNW
ERS-1 Rocket 4.0 22:23:18 34° SW 22:24:42 41° W 22:29:28 10° NNW
CZ-3 Stage 3 4.3 22:11:00 10° W 22:27:16 27° SW 22:29:16 24° SSW
ARGOS 3.2 22:32:39 74° W 22:32:39 74° W 22:37:58 10° NNW
Cosmos 2151 4.4 22:28:48 10° NNW 22:32:36 33° W 22:32:36 33° W
Cosmos 2233 Rocket 4.0 22:46:49 72° WSW 22:47:09 74° W 22:53:19 10° N
Cosmos 2297 Rocket 4.4 23:00:40 10° N 23:03:42 15° NE 23:03:42 15° NE
CZ-4C R/B 4.1 23:17:38 22° NE 23:17:38 22° NE 23:19:44 10° NE
USA 215 3.5 23:08:10 10° NE 23:14:38 65° NNW 23:21:04 10° WSW
CZ-3B DEB 3.8 23:11:16 10° WNW 23:14:42 22° NNW 23:14:42 22° NNW
Cosmos 2369 Rocket 3.2 23:18:38 42° NNW 23:18:38 42° NNW 23:22:44 10° NNE
Cosmos 2227 Rocket 4.0 23:25:52 10° N 23:29:03 23° NNE 23:29:03 23° NNE
Lacrosse 5 3.9 23:30:05 10° NW 23:33:46 24° N 23:33:46 24° N
Terra 4.1 23:47:55 22° NW 23:47:55 22° NW 23:49:46 10° NNW
Cosmos 1943 Rocket 4.0 23:48:27 25° N 23:48:27 25° N 23:50:51 10° NNE
USA 267 4.2 23:50:51 38° W 23:50:51 38° W 23:55:03 10° WNW
